COSMOS 1275 DEB, 14740

Orbit data source: Space-Track

COSMOS 1275 DEB, 14740 is space debris in LEO originally from a launch on Thu, 04 Jun 1981 UTC launched from the Plesetsk Missile And Space Complex (PKMTR). Debris objects in space refer to the collection of defunct objects orbiting the Earth. Examples of debris include non-operational satellites, rocket bodies, and fragments generated from explosions, collisions, or faulty payload assembly.

Loading next visibility...
Identifier
14740, 1981-053JV
Orbit
LEO
Country
Flag of CISCIS
Related business
Manufacturer
Unknown
Mission
Spacecraft
Bus & Motor
Unknown
Mass
Unknown
Launch date (UTC)
1981-06-04 (45 years ago)
Launch vehicle
Unknown
Launch site
Plesetsk Missile And Space Complex (PKMTR)
Object type
Payload
Rocket body
Debris
Shape & HBR
Unknown shape, 0.1 m
Radar Cross Section
Small (<0.1 m²)

Expand to show TLE details & history
Last TLE update: 12 hours ago

TLE from 12 hours ago
0 COSMOS 1275 DEB
1 14740U 81053JV  25349.79509267  .00001755  00000-0  14287-2 0  9993
2 14740  83.1325 115.4366 0103535 203.4905 310.6209 13.86871529 92480
Epoch: 2025-12-15T19:04Z
TLE epoch observation values (Epoch: 2025-12-15T19:04:56.006Z)
Latitude
26.62542°
Longitude
-78.92856°
Altitude
893.991 km
Speed
7.432 km/s
True Right ascension
19h 27m 58s
True Declination
26° 29' 26"
Sunlit
Object was in daylight at epoch
Visualization orbit readout
Latitude
Unknown
Longitude
Unknown
Altitude
Unknown
Speed
Unknown
Apparent Right ascension
Unknown
Apparent Declination
Unknown
Sunlit
N/A
Visualization observer readout
Local Sidereal Time
05:18:15
Azimuth
Unknown
Elevation
Unknown
Doppler factor
Unknown
Orbital elements
Apogee altitude
1,012.474 km
Perigee altitude
861.005 km
Semi-major axis
7,314.877 km
Eccentricity
0.01035
Inclination
83.1325°
RAAN
115.4366°
Arg. of periapsis
203.4905°
True anomaly
309.71275°
Mean anomaly
310.6209°
Eccentric anomaly
310.16759°
Mean motion
3.46923 °/min
Orbital period
103.77 mins
BSTAR
0.0014287
Loading maneuver chart data...
Computing Atmospheric mass density...
Loading historical data...
Loading historical data...
Loading historical data...
Loading historical data...
Loading historical data...
Loading historical data...
Loading historical data...

Documentation

Showing up to 5 results
|